Home > Time Zones > World Clock > Weather > Iran > Rasht > Past weeks

Flag for Iran Weather past 2 weeks in Rasht, Iran

Now
70 °F

Passing clouds.


Feels Like: 70 °F
Forecast: 59 / 77 °F
Wind: 5 mph from Northeast

Location: Rasht Airport

Current Time: May 24, 2015 at 8:23:16 PM

Latest Report: May 24, 2015 at 8:00 PM


Visibility: N/A

Pressure: 29.92 "Hg

Humidity: 69%

Dew point: 59 °F

Location of RashtLocation

Historic Weather in Rasht — Graph

°F

Rasht temperature yesterday

Maximum temperature yesterday: 72 °F (at 12:30 PM)
Minimum temperature yesterday: 66 °F (at 6:30 AM)
Average temperature yesterday: 70 °F

Past Weeks' High & Low Weather Summary

 TemperatureHumidityPressure
High81 °F (May 16, 3:30 PM)100% (May 12, 9:00 AM)30.09 "Hg (May 12, 9:00 AM)
Low57 °F (May 12, 6:30 AM)48% (May 19, 2:00 PM)29.77 "Hg (May 9, 6:30 PM)
Average70 °F75%29.98 "Hg
* Reported May 9 6:30 PM — May 24 7:00 PM, Rasht, Weather by CustomWeather, © 2015

Note: Actual official high and low records may vary slightly from our data, if they occured in-between our weather recording intervals... More about our weather records

Advertising

Rasht weather history for previous 24 hours

 ConditionsComfort  
Time TempWeatherWind HumidityBarometerVisibility
7:00 PM
Sun, May 24
75 °FPassing clouds.5 mph61%29.95 "HgN/A
6:30 PM75 °FPassing clouds.7 mph61%29.95 "HgN/A
6:00 PM75 °FScattered clouds.7 mph61%29.95 "HgN/A
5:30 PM75 °FScattered clouds.7 mph61%29.95 "HgN/A
5:00 PM75 °FScattered clouds.5 mph61%29.95 "HgN/A
4:30 PM75 °FScattered clouds.5 mph61%29.95 "HgN/A
4:00 PM75 °FPassing clouds.5 mph61%29.98 "HgN/A
3:30 PM75 °FPassing clouds.9 mph61%29.98 "HgN/A
3:00 PM75 °FPassing clouds.7 mph61%29.98 "HgN/A
2:30 PM75 °FPassing clouds.7 mph61%29.98 "HgN/A
2:00 PM75 °FScattered clouds.5 mph65%29.98 "HgN/A
1:30 PM75 °FScattered clouds.5 mph65%29.98 "HgN/A
1:00 PM75 °FScattered clouds.7 mph61%29.98 "HgN/A
12:30 PM75 °FScattered clouds.5 mph61%29.98 "HgN/A
12:00 PM73 °FScattered clouds.5 mph61%29.98 "HgN/A
11:30 AM73 °FScattered clouds.5 mph61%29.98 "HgN/A
11:00 AM72 °FScattered clouds.5 mph69%29.98 "HgN/A
10:30 AM72 °FBroken clouds.No wind69%29.98 "HgN/A
10:00 AM73 °FBroken clouds.No wind69%29.98 "Hg5 mi
9:30 AM73 °FBroken clouds.No wind69%29.98 "Hg5 mi
9:00 AM70 °FPartly sunny.No wind78%29.95 "Hg4 mi
8:30 AM68 °FPartly sunny.No wind83%29.95 "Hg4 mi
8:00 AM64 °FPartly sunny.No wind94%29.95 "Hg4 mi
7:30 AM64 °FPartly sunny.No wind94%29.95 "Hg4 mi
7:00 AM66 °FPassing clouds.No wind88%29.95 "HgN/A
6:30 AM66 °FPassing clouds.No wind88%29.95 "HgN/A
10:30 PM
Sat, May 23
68 °FPartly cloudy.No wind83%30.01 "Hg5 mi
8:00 PM70 °FBroken clouds.5 mph69%29.98 "Hg5 mi
Weather by CustomWeather, © 2015

See weather overviewHow to use our weather pages